Location: Lac Lasalle
(46.0398°N, 74.1576°W)
Time: 14:06:33
(UTC-05:00)

AO-73 - Pass Details

Date: 16 December 2019
Orbit: 582 x 664 km, 97.6° (Epoch: 28 January)

Event Time Altitude Azimuth Distance (km) Brightness Sun altitude
Rises 06:23:28 0° 13° (NNE) 2,845 ? -11.4°
Reaches altitude 10° 06:25:39 10° 14° (NNE) 1,930 ? -11.1°
Maximum altitude 06:29:50 85° 102° (ESE) 594 ? -10.4°
Drops below altitude 10° 06:33:57 10° 192° (SSW) 1,895 ? -9.7°
Sets 06:36:05 0° 193° (SSW) 2,789 ? -9.4°
